BEIDOU-2 IGSO-4 (C09)

Last updated on Mon Oct 20 2025 00:03:24 GMT+0000 (Coordinated Universal Time)

1 37763U 11038A 25291.64287774 -.00000031 00000+0 00000+0 0 9996 2 37763 54.5782 167.8465 0144843 230.3265 311.9972 1.00254086 52220
UTC large
Height (km)
Speed (km/s)
/
Latitude / Longitude
Inclination (degrees)
Orbital Period (minutes)
Azimuth
Elevation
Range (km)
Doppler Factor

Next 0 passes for location: London (51.5072 / 0.1276)

Sorry there are no passes over London.